Location: Casteau
(50.5142°N, 4.0161°E)
Time: 04:32:57
(UTC+00:00)

Vanguard 1 Rocket - Pass Details

Date: 29 July 2021
Orbit: 650 x 4226 km, 34.3° (Epoch: 21 September)

Event Time Altitude Azimuth Distance (km) Brightness Sun altitude
Rises 15:24:33 0° 261° (W) 4,879 12.1 37.2°
Reaches altitude 10° 15:30:42 10° 235° (SW) 3,104 11.3 36.2°
Maximum altitude 15:33:09 12° 214° (SW) 2,678 10.6 35.9°
Drops below altitude 10° 15:35:16 10° 193° (SSW) 2,585 10.2 35.5°
Sets 15:39:10 0° 160° (SSE) 3,168 10.1 34.9°
